User: anonymous   Login
Location: Nirvana
(45.0297°N, 77.2628°W)
Time: 06:06:49
(UTC-05:00)
Language:

H-2A R/B - Orbit

View from above orbital plane
View from above orbital plane
View from above satellite
View from above satellite

Ground track
Ground track

The orbit data is extracted from the following two-line orbital elements,

1 27601U 02056E   15061.45064260  .00000312  00000-0  13013-3 0  9996
2 27601 098.4603 142.9149 0071314 255.5981 162.1960 14.31542963637941
Epoch (UTC): 02 March 2015 10:48:55
Eccentricity: 0.0071314
inclination: 98.4603°
perigee height: 735 km
apogee height: 837 km
right ascension of ascending node: 142.9149°
argument of perigee: 255.5981°
revolutions per day: 14.31542963
mean anomaly at epoch: 162.1960°
orbit number at epoch: 63794

The dashed part of the orbit path shows where the satellite is in the earth's shadow,  

DLR